SL-12 R/B(2), 25927

Orbit data source: Space-Track

SL-12 R/B(2), 25927 is space debris in HEO originally from a launch on Sun, 26 Sep 1999 UTC launched from the Tyuratam Missile And Space Complex (TTMTR). Debris objects in space refer to the collection of defunct objects orbiting the Earth. Examples of debris include non-operational satellites, rocket bodies, and fragments generated from explosions, collisions, or faulty payload assembly.

Loading next visibility...
Identifier
25927, 1999-053D
Orbit
HEO
Country
Flag of CISCIS
Related business
Manufacturer
RKKE
Mission
Spacecraft
Bus & Motor
BLOK DM2, Unknown motor
Mass
2,560 kg wet, 2,560 kg dry
Launch date (UTC)
1999-09-26 (26 years ago)
Launch vehicle
Unknown
Launch site
Tyuratam Missile And Space Complex (TTMTR)
Object type
Payload
Rocket body
Debris
Shape & HBR
Cyl + 1 Nozzle, 3.1 m
Radar Cross Section
23.684 m², Large (>1 m²)

Expand to show TLE details & history
Last TLE update: 1 day ago

TLE from 1 day ago
0 SL-12 R/B(2)
1 25927U 99053D   25257.12994378 -.00000165  00000-0  00000-0 0  9998
2 25927  17.8028 343.3436 5327688 225.4711  70.3357  1.89350157179191
Epoch: 2025-09-14T03:07Z
TLE epoch observation values (Epoch: 2025-09-14T03:07:07.142Z)
Latitude
-1.21193°
Longitude
-60.5546°
Altitude
23,902.766 km
Speed
3.447 km/s
True Right ascension
22h 38m 18s
True Declination
-1° 12' 37"
Sunlit
Object was in daylight at epoch
Visualization orbit readout
Latitude
Unknown
Longitude
Unknown
Altitude
Unknown
Speed
Unknown
Apparent Right ascension
Unknown
Apparent Declination
Unknown
Sunlit
N/A
Visualization observer readout
Local Sidereal Time
23:30:51
Azimuth
Unknown
Elevation
Unknown
Doppler factor
Unknown
Orbital elements
Apogee altitude
35,928.055 km
Perigee altitude
6,517.985 km
Semi-major axis
27,601.157 km
Eccentricity
0.53277
Inclination
17.8028°
RAAN
343.3436°
Arg. of periapsis
225.4711°
True anomaly
130.56642°
Mean anomaly
70.3357°
Eccentric anomaly
100.36315°
Mean motion
0.47332 °/min
Orbital period
760.59 mins
BSTAR
0
Loading maneuver chart data...
Computing Atmospheric mass density...
Loading historical data...
Loading historical data...
Loading historical data...
Loading historical data...
Loading historical data...
Loading historical data...
Loading historical data...
Other satellites on launch #53 in the year 1999 (1999-09-26 UTC)

Documentation

Showing up to 5 results
|